| time (UTC) | temp F | wind direction | speed MPH | gust MPH | rain 1hr in | rain 24hr in | rain mn in | humidity % | barometer mb |
| 20260505230503 | 73 | 327 | 3.0 | 9.0 | 0.00 | 0.00 | 0.00 | 34 | 1012.0 |
| 20260505230003 | 73 | 324 | 4.0 | 9.0 | 0.00 | 0.00 | 0.00 | 34 | 1012.0 |
| 20260505225718 | 73 | 333 | 5.0 | 10.0 | 0.00 | 0.00 | 0.00 | 36 | 1012.1 |
| 20260505225003 | 73 | 345 | 3.0 | 16.0 | 0.00 | 0.00 | 0.00 | 34 | 1012.1 |
| 20260505224503 | 73 | 342 | 3.0 | 16.0 | 0.00 | 0.00 | 0.00 | 34 | 1012.1 |
| 20260505224003 | 74 | 327 | 3.0 | 8.0 | 0.00 | 0.00 | 0.00 | 34 | 1012.1 |
| 20260505223503 | 73 | 333 | 3.0 | 9.0 | 0.00 | 0.00 | 0.00 | 33 | 1012.1 |
| 20260505223003 | 73 | 326 | 2.0 | 9.0 | 0.00 | 0.00 | 0.00 | 33 | 1012.2 |
| 20260505222503 | 73 | 276 | 2.0 | 9.0 | 0.00 | 0.00 | 0.00 | 35 | 1012.2 |
| 20260505222003 | 73 | 296 | 3.0 | 9.0 | 0.00 | 0.00 | 0.00 | 35 | 1012.2 |
| 20260505221718 | 73 | 314 | 3.0 | 7.0 | 0.00 | 0.00 | 0.00 | 35 | 1012.2 |
| 20260505221003 | 73 | 336 | 4.0 | 13.0 | 0.00 | 0.00 | 0.00 | 35 | 1012.3 |
| 20260505220503 | 73 | 340 | 4.0 | 13.0 | 0.00 | 0.00 | 0.00 | 35 | 1012.3 |
| 20260505220003 | 73 | 345 | 4.0 | 12.0 | 0.00 | 0.00 | 0.00 | 36 | 1012.3 |
| 20260505215503 | 72 | 345 | 4.0 | 10.0 | 0.00 | 0.00 | 0.00 | 35 | 1012.3 |
| 20260505215003 | 72 | 345 | 4.0 | 11.0 | 0.00 | 0.00 | 0.00 | 34 | 1012.4 |
| 20260505214717 | 73 | 341 | 4.0 | 11.0 | 0.00 | 0.00 | 0.00 | 33 | 1012.4 |
| 20260505214218 | 74 | 341 | 3.0 | 11.0 | 0.00 | 0.00 | 0.00 | 36 | 1012.4 |
| 20260505213503 | 74 | 335 | 3.0 | 13.0 | 0.00 | 0.00 | 0.00 | 35 | 1012.5 |
| 20260505213003 | 73 | 330 | 3.0 | 13.0 | 0.00 | 0.00 | 0.00 | 35 | 1012.4 |
| 20260505212503 | 74 | 336 | 3.0 | 10.0 | 0.00 | 0.00 | 0.00 | 35 | 1012.5 |
| 20260505212218 | 74 | 340 | 3.0 | 10.0 | 0.00 | 0.00 | 0.00 | 36 | 1012.5 |
| 20260505211503 | 73 | 343 | 3.0 | 13.0 | 0.00 | 0.00 | 0.00 | 34 | 1012.6 |
| 20260505211218 | 73 | 333 | 3.0 | 13.0 | 0.00 | 0.00 | 0.00 | 33 | 1012.6 |
| 20260505210503 | 73 | 322 | 4.0 | 10.0 | 0.00 | 0.00 | 0.00 | 33 | 1012.5 |
| 20260505210004 | 72 | 344 | 3.0 | 10.0 | 0.00 | 0.00 | 0.00 | 37 | 1012.6 |
| 20260505205503 | 73 | 338 | 2.0 | 10.0 | 0.00 | 0.00 | 0.00 | 34 | 1012.6 |
| 20260505205003 | 74 | 301 | 1.0 | 7.0 | 0.00 | 0.00 | 0.00 | 36 | 1012.6 |
| 20260505204503 | 74 | 265 | 2.0 | 6.0 | 0.00 | 0.00 | 0.00 | 36 | 1012.5 |
| 20260505204003 | 73 | 277 | 2.0 | 5.0 | 0.00 | 0.00 | 0.00 | 34 | 1012.6 |
| 20260505203503 | 74 | 273 | 2.0 | 11.0 | 0.00 | 0.00 | 0.00 | 35 | 1012.5 |
| 20260505203003 | 73 | 280 | 1.0 | 11.0 | 0.00 | 0.00 | 0.00 | 34 | 1012.6 |
| 20260505202503 | 74 | 318 | 1.0 | 4.0 | 0.00 | 0.00 | 0.00 | 34 | 1012.6 |
| 20260505202003 | 74 | 268 | 2.0 | 6.0 | 0.00 | 0.00 | 0.00 | 39 | 1012.6 |
| 20260505201504 | 73 | 230 | 2.0 | 6.0 | 0.00 | 0.00 | 0.00 | 35 | 1012.6 |
| 20260505201003 | 73 | 214 | 3.0 | 6.0 | 0.00 | 0.00 | 0.00 | 38 | 1012.6 |
| 20260505200505 | 73 | 228 | 3.0 | 6.0 | 0.00 | 0.00 | 0.00 | 36 | 1012.6 |
| 20260505200003 | 73 | 323 | 3.0 | 8.0 | 0.00 | 0.00 | 0.00 | 39 | 1012.6 |
| 20260505195503 | 73 | 292 | 2.0 | 12.0 | 0.00 | 0.00 | 0.00 | 35 | 1012.7 |
| 20260505195003 | 72 | 253 | 1.0 | 12.0 | 0.00 | 0.00 | 0.00 | 33 | 1012.6 |
| 20260505194504 | 73 | 288 | 1.0 | 3.0 | 0.00 | 0.00 | 0.00 | 37 | 1012.6 |
| 20260505194003 | 72 | 295 | 1.0 | 3.0 | 0.00 | 0.00 | 0.00 | 37 | 1012.7 |
| 20260505193503 | 72 | 353 | 1.0 | 7.0 | 0.00 | 0.00 | 0.00 | 35 | 1012.7 |
| 20260505193003 | 73 | 318 | 1.0 | 7.0 | 0.00 | 0.00 | 0.00 | 35 | 1012.7 |
| 20260505192718 | 73 | 268 | 1.0 | 4.0 | 0.00 | 0.00 | 0.00 | 34 | 1012.7 |
| 20260505192003 | 73 | 223 | 2.0 | 5.0 | 0.00 | 0.00 | 0.00 | 36 | 1012.8 |
| 20260505191503 | 72 | 194 | 1.0 | 5.0 | 0.00 | 0.00 | 0.00 | 35 | 1012.7 |
| 20260505191003 | 72 | 148 | 1.0 | 5.0 | 0.00 | 0.00 | 0.00 | 37 | 1012.8 |
| 20260505190503 | 72 | 105 | 0.0 | 3.0 | 0.00 | 0.00 | 0.00 | 38 | 1012.7 |
| 20260505190004 | 71 | 75 | 1.0 | 2.0 | 0.00 | 0.00 | 0.00 | 40 | 1012.8 |
| 20260505185722 | 71 | 85 | 1.0 | 2.0 | 0.00 | 0.00 | 0.00 | 38 | 1012.8 |
| 20260505185003 | 70 | 51 | 1.0 | 4.0 | 0.00 | 0.00 | 0.00 | 39 | 1012.9 |
| 20260505184504 | 70 | 46 | 1.0 | 4.0 | 0.00 | 0.00 | 0.00 | 37 | 1012.9 |
| 20260505184003 | 70 | 43 | 1.0 | 4.0 | 0.00 | 0.00 | 0.00 | 38 | 1012.9 |
| 20260505183718 | 69 | 59 | 1.0 | 4.0 | 0.00 | 0.00 | 0.00 | 39 | 1012.8 |
| 20260505183217 | 69 | 59 | 1.0 | 4.0 | 0.00 | 0.00 | 0.00 | 40 | 1012.9 |
| 20260505182503 | 69 | 52 | 1.0 | 5.0 | 0.00 | 0.00 | 0.00 | 38 | 1013.0 |
| 20260505182003 | 69 | 44 | 1.0 | 5.0 | 0.00 | 0.00 | 0.00 | 38 | 1013.0 |
| 20260505181503 | 69 | 60 | 1.0 | 4.0 | 0.00 | 0.00 | 0.00 | 38 | 1013.0 |
| 20260505181003 | 69 | 78 | 1.0 | 4.0 | 0.00 | 0.00 | 0.00 | 41 | 1013.0 |
| 20260505180503 | 69 | 67 | 1.0 | 4.0 | 0.00 | 0.00 | 0.00 | 43 | 1013.0 |
| 20260505180003 | 68 | 60 | 1.0 | 6.0 | 0.00 | 0.00 | 0.00 | 42 | 1013.0 |
| 20260505175503 | 68 | 53 | 1.0 | 6.0 | 0.00 | 0.00 | 0.00 | 43 | 1013.0 |
| 20260505175003 | 68 | 47 | 1.0 | 4.0 | 0.00 | 0.00 | 0.00 | 44 | 1013.0 |
| 20260505174503 | 68 | 45 | 1.0 | 4.0 | 0.00 | 0.00 | 0.00 | 43 | 1013.0 |
| 20260505174003 | 68 | 46 | 1.0 | 4.0 | 0.00 | 0.00 | 0.00 | 43 | 1013.0 |
| 20260505173503 | 68 | 58 | 1.0 | 3.0 | 0.00 | 0.00 | 0.00 | 42 | 1013.0 |
| 20260505173003 | 68 | 61 | 1.0 | 3.0 | 0.00 | 0.00 | 0.00 | 44 | 1013.0 |
| 20260505172503 | 67 | 68 | 1.0 | 5.0 | 0.00 | 0.00 | 0.00 | 45 | 1012.9 |
| 20260505172003 | 67 | 62 | 1.0 | 5.0 | 0.00 | 0.00 | 0.00 | 43 | 1012.9 |
| 20260505171718 | 67 | 48 | 1.0 | 4.0 | 0.00 | 0.00 | 0.00 | 41 | 1013.0 |
| 20260505171217 | 67 | 41 | 1.0 | 3.0 | 0.00 | 0.00 | 0.00 | 45 | 1012.9 |
| 20260505170503 | 68 | 37 | 1.0 | 6.0 | 0.00 | 0.00 | 0.00 | 45 | 1012.9 |
| 20260505170003 | 67 | 38 | 1.0 | 3.0 | 0.00 | 0.00 | 0.00 | 42 | 1012.9 |
| 20260505165718 | 67 | 58 | 1.0 | 3.0 | 0.00 | 0.00 | 0.00 | 45 | 1012.9 |
| 20260505165003 | 66 | 55 | 1.0 | 4.0 | 0.00 | 0.00 | 0.00 | 43 | 1012.9 |
| 20260505164503 | 67 | 39 | 1.0 | 3.0 | 0.00 | 0.00 | 0.00 | 45 | 1012.8 |
| 20260505164216 | 67 | 52 | 1.0 | 2.0 | 0.00 | 0.00 | 0.00 | 46 | 1012.8 |
| 20260505163717 | 66 | 48 | 1.0 | 3.0 | 0.00 | 0.00 | 0.00 | 48 | 1012.8 |
| 20260505163003 | 66 | 49 | 1.0 | 5.0 | 0.00 | 0.00 | 0.00 | 47 | 1012.7 |
| 20260505162503 | 65 | 55 | 1.0 | 5.0 | 0.00 | 0.00 | 0.00 | 47 | 1012.7 |
| 20260505162003 | 65 | 59 | 1.0 | 4.0 | 0.00 | 0.00 | 0.00 | 50 | 1012.7 |
| 20260505161503 | 64 | 39 | 0.0 | 8.0 | 0.00 | 0.00 | 0.00 | 48 | 1012.7 |
| 20260505161003 | 64 | 12 | 0.0 | 8.0 | 0.00 | 0.00 | 0.00 | 49 | 1012.7 |
| 20260505160508 | 64 | 10 | 1.0 | 5.0 | 0.00 | 0.00 | 0.00 | 47 | 1012.7 |
| 20260505153003 | 60 | 56 | 4.0 | 8.0 | 0.00 | 0.00 | 0.00 | 54 | 1012.7 |
| 20260505152503 | 59 | 55 | 4.0 | 8.0 | 0.00 | 0.00 | 0.00 | 52 | 1012.6 |
| 20260505152003 | 59 | 49 | 3.0 | 8.0 | 0.00 | 0.00 | 0.00 | 53 | 1012.6 |
| 20260505151503 | 59 | 46 | 3.0 | 8.0 | 0.00 | 0.00 | 0.00 | 53 | 1012.5 |
| 20260505151003 | 59 | 50 | 3.0 | 7.0 | 0.00 | 0.00 | 0.00 | 54 | 1012.5 |
| 20260505150503 | 59 | 51 | 2.0 | 7.0 | 0.00 | 0.00 | 0.00 | 55 | 1012.5 |
| 20260505125003 | 45 | 0 | 0.0 | 1.0 | 0.00 | 0.00 | 0.00 | 74 | 1011.6 |
| 20260505124503 | 45 | 0 | 0.0 | 1.0 | 0.00 | 0.00 | 0.00 | 74 | 1011.6 |
| 20260505124003 | 47 | 0 | 0.0 | 2.0 | 0.00 | 0.00 | 0.00 | 73 | 1011.5 |
| 20260505123503 | 47 | 102 | 0.0 | 2.0 | 0.00 | 0.00 | 0.00 | 72 | 1011.5 |
| 20260505123003 | 48 | 101 | 1.0 | 2.0 | 0.00 | 0.00 | 0.00 | 71 | 1011.3 |
| 20260505122503 | 48 | 88 | 1.0 | 3.0 | 0.00 | 0.00 | 0.00 | 70 | 1011.3 |
| 20260505122003 | 49 | 86 | 0.0 | 3.0 | 0.00 | 0.00 | 0.00 | 69 | 1011.3 |
| 20260505121503 | 49 | 0 | 0.0 | 3.0 | 0.00 | 0.00 | 0.00 | 69 | 1011.2 |
| 20260505121003 | 48 | 0 | 0.0 | 2.0 | 0.00 | 0.00 | 0.00 | 71 | 1011.2 |
| 20260505120503 | 48 | 0 | 0.0 | 2.0 | 0.00 | 0.00 | 0.00 | 71 | 1011.1 |
| 20260505120004 | 48 | 0 | 0.0 | 3.0 | 0.00 | 0.00 | 0.00 | 73 | 1011.1 |
| 20260505115503 | 47 | 0 | 0.0 | 3.0 | 0.00 | 0.00 | 0.00 | 74 | 1011.1 |
| 20260505115003 | 46 | 0 | 0.0 | 2.0 | 0.00 | 0.00 | 0.00 | 75 | 1011.1 |
| 20260505114718 | 46 | 0 | 0.0 | 2.0 | 0.00 | 0.00 | 0.00 | 75 | 1011.2 |
| 20260505114003 | 46 | 0 | 0.0 | 2.0 | 0.00 | 0.00 | 0.00 | 76 | 1011.1 |
| 20260505113503 | 47 | 0 | 0.0 | 2.0 | 0.00 | 0.00 | 0.00 | 75 | 1011.0 |
| 20260505113003 | 47 | 0 | 0.0 | 2.0 | 0.00 | 0.00 | 0.00 | 74 | 1011.1 |
| 20260505112503 | 48 | 105 | 0.0 | 3.0 | 0.00 | 0.00 | 0.00 | 73 | 1011.1 |
| 20260505112003 | 48 | 107 | 1.0 | 3.0 | 0.00 | 0.00 | 0.00 | 72 | 1011.0 |
| 20260505111503 | 49 | 120 | 1.0 | 4.0 | 0.00 | 0.00 | 0.00 | 72 | 1011.0 |
| 20260505111003 | 48 | 113 | 0.0 | 4.0 | 0.00 | 0.00 | 0.00 | 72 | 1010.9 |
| 20260505110717 | 48 | 0 | 0.0 | 3.0 | 0.00 | 0.00 | 0.00 | 73 | 1010.9 |
| 20260505102003 | 45 | 0 | 0.0 | 3.0 | 0.00 | 0.00 | 0.00 | 80 | 1010.5 |
| 20260505101503 | 45 | 0 | 0.0 | 2.0 | 0.00 | 0.00 | 0.00 | 80 | 1010.5 |
| 20260505101003 | 46 | 0 | 0.0 | 1.0 | 0.00 | 0.00 | 0.00 | 78 | 1010.5 |
| 20260505100503 | 47 | 0 | 0.0 | 2.0 | 0.00 | 0.00 | 0.00 | 78 | 1010.5 |
| 20260505100003 | 47 | 0 | 0.0 | 2.0 | 0.00 | 0.00 | 0.00 | 79 | 1010.5 |
| 20260505095503 | 46 | 0 | 0.0 | 1.0 | 0.00 | 0.00 | 0.00 | 81 | 1010.5 |
| 20260505095003 | 45 | 0 | 0.0 | 0.0 | 0.00 | 0.00 | 0.00 | 80 | 1010.4 |
| 20260505094717 | 45 | 0 | 0.0 | 0.0 | 0.00 | 0.00 | 0.00 | 80 | 1010.4 |
| 20260505094003 | 46 | 0 | 0.0 | 0.0 | 0.00 | 0.00 | 0.00 | 79 | 1010.3 |
| 20260505093717 | 46 | 0 | 0.0 | 0.0 | 0.00 | 0.00 | 0.00 | 78 | 1010.3 |
| 20260505093003 | 47 | 0 | 0.0 | 1.0 | 0.00 | 0.00 | 0.00 | 77 | 1010.3 |
| 20260505092503 | 48 | 0 | 0.0 | 1.0 | 0.00 | 0.00 | 0.00 | 76 | 1010.3 |
| 20260505092003 | 48 | 0 | 0.0 | 1.0 | 0.00 | 0.00 | 0.00 | 76 | 1010.3 |
| 20260505091503 | 48 | 0 | 0.0 | 1.0 | 0.00 | 0.00 | 0.00 | 78 | 1010.3 |
| 20260505091003 | 47 | 0 | 0.0 | 1.0 | 0.00 | 0.00 | 0.00 | 79 | 1010.3 |
| 20260505090503 | 47 | 0 | 0.0 | 0.0 | 0.00 | 0.00 | 0.00 | 78 | 1010.3 |
| 20260505090003 | 47 | 0 | 0.0 | 0.0 | 0.00 | 0.00 | 0.00 | 78 | 1010.2 |
| 20260505085503 | 47 | 0 | 0.0 | 1.0 | 0.00 | 0.00 | 0.00 | 78 | 1010.3 |
| 20260505085003 | 47 | 0 | 0.0 | 1.0 | 0.00 | 0.00 | 0.00 | 78 | 1010.2 |
| 20260505084716 | 47 | 0 | 0.0 | 0.0 | 0.00 | 0.00 | 0.00 | 77 | 1010.2 |
| 20260505084003 | 48 | 0 | 0.0 | 0.0 | 0.00 | 0.00 | 0.00 | 76 | 1010.3 |
| 20260505083503 | 48 | 0 | 0.0 | 3.0 | 0.00 | 0.00 | 0.00 | 75 | 1010.1 |
| 20260505083003 | 49 | 0 | 0.0 | 3.0 | 0.00 | 0.00 | 0.00 | 74 | 1010.1 |
| 20260505082503 | 49 | 0 | 0.0 | 1.0 | 0.00 | 0.00 | 0.00 | 75 | 1010.1 |
| 20260505082003 | 49 | 0 | 0.0 | 0.0 | 0.00 | 0.00 | 0.00 | 75 | 1010.1 |
| 20260505081718 | 49 | 0 | 0.0 | 0.0 | 0.00 | 0.00 | 0.00 | 75 | 1010.1 |
| 20260505081003 | 49 | 0 | 0.0 | 1.0 | 0.00 | 0.00 | 0.00 | 74 | 1010.1 |
| 20260505080503 | 50 | 0 | 0.0 | 1.0 | 0.00 | 0.00 | 0.00 | 73 | 1010.1 |
| 20260505080003 | 50 | 0 | 0.0 | 2.0 | 0.00 | 0.00 | 0.00 | 71 | 1010.1 |
| 20260505075503 | 51 | 0 | 0.0 | 2.0 | 0.00 | 0.00 | 0.00 | 71 | 1010.0 |
| 20260505075003 | 50 | 0 | 0.0 | 1.0 | 0.00 | 0.00 | 0.00 | 73 | 1010.1 |
| 20260505074503 | 49 | 0 | 0.0 | 1.0 | 0.00 | 0.00 | 0.00 | 74 | 1010.0 |
| 20260505074003 | 49 | 0 | 0.0 | 1.0 | 0.00 | 0.00 | 0.00 | 74 | 1010.0 |
| 20260505073503 | 49 | 0 | 0.0 | 1.0 | 0.00 | 0.00 | 0.00 | 73 | 1009.9 |
| 20260505073003 | 50 | 0 | 0.0 | 1.0 | 0.00 | 0.00 | 0.00 | 72 | 1010.0 |
| 20260505072503 | 51 | 0 | 0.0 | 1.0 | 0.00 | 0.00 | 0.00 | 71 | 1009.9 |
| 20260505072003 | 51 | 0 | 0.0 | 1.0 | 0.00 | 0.00 | 0.00 | 70 | 1009.9 |
| 20260505071503 | 52 | 0 | 0.0 | 1.0 | 0.00 | 0.00 | 0.00 | 68 | 1009.9 |
| 20260505071217 | 52 | 0 | 0.0 | 1.0 | 0.00 | 0.00 | 0.00 | 68 | 1009.8 |
| 20260505070503 | 53 | 111 | 0.0 | 3.0 | 0.00 | 0.00 | 0.00 | 67 | 1009.8 |
| 20260505070009 | 53 | 110 | 0.0 | 3.0 | 0.00 | 0.00 | 0.00 | 66 | 1009.8 |
| 20260505065718 | 53 | 0 | 0.0 | 3.0 | 0.00 | 0.00 | 0.00 | 66 | 1009.7 |
| 20260505065003 | 53 | 0 | 0.0 | 1.0 | 0.00 | 0.00 | 0.00 | 66 | 1009.6 |
| 20260505064503 | 54 | 0 | 0.0 | 1.0 | 0.00 | 0.00 | 0.00 | 65 | 1009.6 |
| 20260505064003 | 54 | 0 | 0.0 | 2.0 | 0.00 | 0.00 | 0.00 | 63 | 1009.5 |
| 20260505063503 | 55 | 0 | 0.0 | 2.0 | 0.00 | 0.00 | 0.00 | 62 | 1009.6 |
| 20260505063217 | 55 | 0 | 0.0 | 3.0 | 0.00 | 0.00 | 0.00 | 62 | 1009.5 |
| 20260505062503 | 55 | 0 | 0.0 | 3.0 | 0.00 | 0.00 | 0.00 | 63 | 1009.5 |
| 20260505062003 | 54 | 0 | 0.0 | 2.0 | 0.00 | 0.00 | 0.00 | 65 | 1009.4 |
| 20260505061503 | 53 | 0 | 0.0 | 1.0 | 0.00 | 0.00 | 0.00 | 67 | 1009.4 |
| 20260505061003 | 52 | 0 | 0.0 | 1.0 | 0.00 | 0.00 | 0.00 | 68 | 1009.4 |
| 20260505060503 | 52 | 0 | 0.0 | 1.0 | 0.00 | 0.00 | 0.00 | 68 | 1009.4 |
| 20260505060216 | 52 | 0 | 0.0 | 1.0 | 0.00 | 0.00 | 0.00 | 67 | 1009.4 |
| 20260505055503 | 53 | 0 | 0.0 | 1.0 | 0.00 | 0.00 | 0.00 | 65 | 1009.4 |
| 20260505055003 | 54 | 0 | 0.0 | 1.0 | 0.00 | 0.00 | 0.00 | 64 | 1009.4 |
| 20260505054503 | 55 | 0 | 0.0 | 1.0 | 0.00 | 0.00 | 0.00 | 63 | 1009.3 |
| 20260505054003 | 55 | 0 | 0.0 | 3.0 | 0.00 | 0.00 | 0.00 | 62 | 1009.3 |
| 20260505053503 | 55 | 0 | 0.0 | 3.0 | 0.00 | 0.00 | 0.00 | 63 | 1009.3 |
| 20260505053003 | 53 | 0 | 0.0 | 2.0 | 0.00 | 0.00 | 0.00 | 67 | 1009.2 |
| 20260505052503 | 51 | 0 | 0.0 | 1.0 | 0.00 | 0.00 | 0.00 | 70 | 1009.2 |
| 20260505052003 | 50 | 0 | 0.0 | 1.0 | 0.00 | 0.00 | 0.00 | 72 | 1009.2 |
| 20260505051503 | 50 | 0 | 0.0 | 1.0 | 0.00 | 0.00 | 0.00 | 73 | 1009.2 |
| 20260505051218 | 50 | 0 | 0.0 | 2.0 | 0.00 | 0.00 | 0.00 | 73 | 1009.2 |
| 20260505050503 | 51 | 144 | 0.0 | 3.0 | 0.00 | 0.00 | 0.00 | 71 | 1009.1 |
| 20260505041503 | 54 | 0 | 0.0 | 4.0 | 0.00 | 0.00 | 0.00 | 66 | 1008.9 |
| 20260505041218 | 54 | 0 | 0.0 | 0.0 | 0.00 | 0.00 | 0.00 | 65 | 1008.7 |
| 20260505040503 | 55 | 0 | 0.0 | 2.0 | 0.00 | 0.00 | 0.00 | 64 | 1008.7 |
| 20260505040004 | 55 | 0 | 0.0 | 2.0 | 0.00 | 0.00 | 0.00 | 63 | 1008.6 |
| 20260505035503 | 56 | 0 | 0.0 | 0.0 | 0.00 | 0.00 | 0.00 | 61 | 1008.6 |
| 20260505035003 | 56 | 0 | 0.0 | 0.0 | 0.00 | 0.00 | 0.00 | 61 | 1008.5 |
| 20260505034503 | 57 | 0 | 0.0 | 1.0 | 0.00 | 0.00 | 0.00 | 59 | 1008.5 |
| 20260505034003 | 59 | 0 | 0.0 | 1.0 | 0.00 | 0.00 | 0.00 | 56 | 1008.4 |
| 20260505033503 | 60 | 0 | 0.0 | 1.0 | 0.00 | 0.00 | 0.00 | 53 | 1008.3 |
| 20260505033218 | 61 | 0 | 0.0 | 1.0 | 0.00 | 0.00 | 0.00 | 52 | 1008.3 |
| 20260505032503 | 63 | 0 | 0.0 | 1.0 | 0.00 | 0.00 | 0.00 | 49 | 1008.2 |
| 20260505032003 | 64 | 342 | 0.0 | 2.0 | 0.00 | 0.00 | 0.00 | 47 | 1008.2 |
| 20260505031503 | 64 | 342 | 0.0 | 2.0 | 0.00 | 0.00 | 0.00 | 47 | 1008.1 |
| 20260505031003 | 65 | 342 | 0.0 | 2.0 | 0.00 | 0.00 | 0.00 | 46 | 1008.1 |
| 20260505030503 | 65 | 344 | 0.0 | 3.0 | 0.00 | 0.00 | 0.00 | 46 | 1008.0 |
| 20260505030003 | 66 | 345 | 1.0 | 3.0 | 0.00 | 0.00 | 0.00 | 46 | 1008.0 |
| 20260505025503 | 66 | 338 | 1.0 | 3.0 | 0.00 | 0.00 | 0.00 | 45 | 1008.0 |
| 20260505025217 | 66 | 334 | 2.0 | 3.0 | 0.00 | 0.00 | 0.00 | 44 | 1007.9 |
| 20260505024503 | 67 | 339 | 2.0 | 4.0 | 0.00 | 0.00 | 0.00 | 42 | 1007.9 |
| 20260505024003 | 68 | 347 | 2.0 | 7.0 | 0.00 | 0.00 | 0.00 | 42 | 1007.8 |
| 20260505023503 | 69 | 346 | 3.0 | 7.0 | 0.00 | 0.00 | 0.00 | 39 | 1007.8 |
| 20260505023003 | 70 | 343 | 3.0 | 6.0 | 0.00 | 0.00 | 0.00 | 39 | 1007.8 |
| 20260505022503 | 70 | 344 | 2.0 | 7.0 | 0.00 | 0.00 | 0.00 | 39 | 1007.8 |
| 20260505022003 | 71 | 346 | 2.0 | 7.0 | 0.00 | 0.00 | 0.00 | 38 | 1007.7 |
| 20260505021503 | 72 | 348 | 2.0 | 5.0 | 0.00 | 0.00 | 0.00 | 37 | 1007.8 |
| 20260505021003 | 72 | 349 | 2.0 | 5.0 | 0.00 | 0.00 | 0.00 | 36 | 1007.8 |
| 20260505020503 | 73 | 348 | 2.0 | 7.0 | 0.00 | 0.00 | 0.00 | 35 | 1007.8 |
| 20260505020003 | 73 | 347 | 2.0 | 7.0 | 0.00 | 0.00 | 0.00 | 34 | 1007.7 |
| 20260505015503 | 73 | 347 | 2.0 | 6.0 | 0.00 | 0.00 | 0.00 | 34 | 1007.7 |
| 20260505015217 | 74 | 347 | 2.0 | 7.0 | 0.00 | 0.00 | 0.00 | 34 | 1007.6 |
| 20260505014718 | 74 | 341 | 2.0 | 9.0 | 0.00 | 0.00 | 0.00 | 33 | 1007.6 |
| 20260505014003 | 74 | 339 | 2.0 | 7.0 | 0.00 | 0.00 | 0.00 | 32 | 1007.5 |
| 20260505013503 | 74 | 344 | 2.0 | 7.0 | 0.00 | 0.00 | 0.00 | 32 | 1007.6 |
| 20260505013003 | 74 | 349 | 3.0 | 7.0 | 0.00 | 0.00 | 0.00 | 32 | 1007.7 |
| 20260505012503 | 74 | 348 | 3.0 | 7.0 | 0.00 | 0.00 | 0.00 | 31 | 1007.7 |
| 20260505012003 | 74 | 349 | 4.0 | 6.0 | 0.00 | 0.00 | 0.00 | 30 | 1007.7 |
| 20260505011503 | 74 | 348 | 4.0 | 9.0 | 0.00 | 0.00 | 0.00 | 31 | 1007.8 |
| 20260505011003 | 74 | 343 | 4.0 | 10.0 | 0.00 | 0.00 | 0.00 | 33 | 1007.8 |
| 20260505010503 | 75 | 347 | 3.0 | 10.0 | 0.00 | 0.00 | 0.00 | 32 | 1007.8 |
| 20260505010004 | 75 | 351 | 3.0 | 9.0 | 0.00 | 0.00 | 0.00 | 35 | 1007.9 |
| 20260505005503 | 75 | 346 | 3.0 | 8.0 | 0.00 | 0.00 | 0.00 | 34 | 1007.9 |
| 20260505005004 | 75 | 342 | 3.0 | 10.0 | 0.00 | 0.00 | 0.00 | 33 | 1007.9 |
| 20260505004503 | 75 | 343 | 3.0 | 10.0 | 0.00 | 0.00 | 0.00 | 34 | 1007.9 |
| 20260505004003 | 75 | 344 | 3.0 | 10.0 | 0.00 | 0.00 | 0.00 | 33 | 1007.9 |
| 20260505003503 | 75 | 346 | 3.0 | 10.0 | 0.00 | 0.00 | 0.00 | 35 | 1008.0 |
| 20260505003216 | 75 | 349 | 3.0 | 10.0 | 0.00 | 0.00 | 0.00 | 34 | 1008.0 |
| 20260505002503 | 75 | 347 | 4.0 | 9.0 | 0.00 | 0.00 | 0.00 | 36 | 1008.0 |
| 20260505002003 | 75 | 347 | 4.0 | 8.0 | 0.00 | 0.00 | 0.00 | 37 | 1008.0 |
| 20260505001717 | 75 | 346 | 3.0 | 8.0 | 0.00 | 0.00 | 0.00 | 34 | 1008.0 |
| 20260505001003 | 76 | 332 | 3.0 | 8.0 | 0.00 | 0.00 | 0.00 | 34 | 1008.1 |
| 20260505000503 | 76 | 326 | 3.0 | 8.0 | 0.00 | 0.00 | 0.00 | 37 | 1008.0 |
| 20260505000004 | 76 | 272 | 3.0 | 10.0 | 0.00 | 0.00 | 0.00 | 36 | 1008.1 |
| 20260504235503 | 76 | 236 | 3.0 | 12.0 | 0.00 | 0.00 | 0.00 | 37 | 1008.0 |
| 20260504235003 | 76 | 239 | 3.0 | 12.0 | 0.00 | 0.00 | 0.00 | 35 | 1008.1 |
| 20260504234504 | 76 | 236 | 3.0 | 11.0 | 0.00 | 0.00 | 0.00 | 37 | 1008.1 |
| 20260504234003 | 76 | 234 | 2.0 | 11.0 | 0.00 | 0.00 | 0.00 | 36 | 1008.1 |
| 20260504233503 | 76 | 247 | 2.0 | 8.0 | 0.00 | 0.00 | 0.00 | 37 | 1008.1 |
| 20260504233003 | 76 | 283 | 3.0 | 7.0 | 0.00 | 0.00 | 0.00 | 37 | 1008.1 |
| 20260504232503 | 76 | 264 | 4.0 | 8.0 | 0.00 | 0.00 | 0.00 | 38 | 1008.1 |
| 20260504232003 | 76 | 244 | 4.0 | 10.0 | 0.00 | 0.00 | 0.00 | 36 | 1008.1 |
| 20260504231503 | 76 | 232 | 4.0 | 11.0 | 0.00 | 0.00 | 0.00 | 37 | 1008.0 |
| 20260504231218 | 76 | 231 | 4.0 | 12.0 | 0.00 | 0.00 | 0.00 | 35 | 1008.1 |